SCP
0 0 0 0 0 0 0 0 0 0 0 0 0 0 0 0 0 0 0 0 0 0 0 0 0 0 0
0 0 0 0 0 0 0 0 0 0 0 0 0 0 0 0 0 0 0 0 0 0 0 0 0 0 0
0 0 0 0 0 0 0 0 0 0 0 0 0 0 0 0 0 0 0 0 0 0 0 0 0 0 0
0 0 0 0 0 0 0 0 0 0 0 0 0 0 0 0 0 0 0 0 0 0 0 0 0 0 0
0 0 0 0 0 0 0 0 0 0 0 0 0 0 0 0 0 0 0 0 0 0 0 0 0 0 0
0 0 0 0 0 0 0 0 0 0 0 0 0 0 0 0 0 0 0 0 0 0 0 0 0 0 0
0 0 0 0 0 0 0 0 0 0 0 0 0 0 0 0 0 0 0 0 0 0 0 0 0 0 0
0 0 0 0 0 0 0 0 0 0 0 0 0 0 0 0 0 0 0 0 0 0 0 0 0 0 0
0 0 0 0 0 0 0 0 0 0 0 0 0 0 0 0 0 0 0 0 0 0 0 0 0 0 0
0 0 0 0 0 0 0 0 0 0 0 0 0 0 0 0 0 0 0 0 0 0 0 0 0 0 0
0 0 0 0 0 0 0 0 0 0 0 0 0 0 0 0 0 0 0 0 0 0 0 0 0 0 0
0 0 0 0 0 0 0 0 0 0 0 0 0 0 0 0 0 0 0 0 0 0 0 0 0 0 0
0 0 0 0 0 0 0 0 0 0 0 0 0 0 0 0 0 0 0 0 0 0 0 0 0 0 0
0 0 0 0 0 0 0 0 0 0 0 0 0 0 0 0 0 0 0 0 0 0 0 0 0 0 0
0 0 0 0 0 0 0 0 0 0 0 0 0 0 0 0 0 0 0 0 0 0 0 0 0 0 0
0 0 0 0 0 0 0 0 0 0 0 0 0 0 0 0 0 0 0 0 0 0 0 0 0 0 0
0 0 0 0 0 0 0 0 0 0 0 0 0 0 0 0 0 0 0 0 0 0 0 0 0 0 0
Wind_Speed_500mb
77 74 73 77 77 75 72 73 67 62 69 73 73 73 72 73 72 68 74 85 97 94 94 93 89 83 77
76 75 74 72 76 83 81 82 85 80 75 62 64 66 67 67 68 67 67 70 77 78 73 77 88 89 85
74 69 72 72 68 73 79 77 74 69 68 66 68 68 70 71 74 70 71 74 74 83 84 82 81 79 84
69 67 54 73 66 71 77 80 78 64 63 60 61 64 68 74 76 78 74 78 79 83 82 80 82 85 90
63 63 64 66 57 58 60 63 53 53 55 60 58 58 55 58 60 62 81 84 82 81 80 80 81 82 86
57 55 54 53 49 47 36 33 50 49 53 54 49 55 51 51 58 57 60 70 76 77 78 79 77 73 86
55 54 49 47 47 40 33 40 46 45 37 38 44 48 53 52 53 55 61 63 73 78 78 72 75 69 86
61 60 62 56 51 46 50 46 49 51 47 46 48 47 48 45 51 51 50 42 30 26 34 48 58 67 55
56 61 64 62 57 55 51 50 54 54 52 48 44 41 36 33 31 24 26 24 23 20 15 20 25 24 24
29 35 41 46 53 46 48 48 60 48 41 38 37 37 22 26 26 24 22 25 21 16 19 20 19 19 22
4 3 0 7 14 24 26 25 30 27 30 37 38 40 23 34 30 27 22 20 17 20 21 21 23 27 29
11 11 13 17 21 20 19 14 13 13 23 24 35 35 23 34 24 24 22 19 20 22 22 24 26 28 32
13 12 9 6 8 7 8 9 11 16 16 14 24 31 21 20 27 28 25 24 25 28 31 32 35 35 31
13 11 9 8 9 10 7 9 8 12 13 14 15 18 18 18 19 22 25 19 21 23 23 23 26 26 29
10 10 11 10 10 12 11 10 11 15 16 15 14 14 16 18 19 18 19 19 19 20 21 23 23 24 27
11 10 9 9 9 10 10 11 11 13 11 11 11 12 14 12 10 10 11 11 12 15 20 24 24 26 27
10 9 9 9 8 7 8 8 8 7 6 7 8 10 11 14 12 8 9 10 14 20 24 28 35 31 32
Wind_Direction_500mb
278 279 273 264 263 261 258 252 249 254 254 252 253 248 246 252 257 264 264 257 254 259 261 262 259 253 251
278 280 276 272 265 260 256 253 258 259 249 255 253 249 248 250 253 260 266 263 258 259 260 260 255 254 252
277 279 277 272 266 261 256 252 255 253 255 255 249 246 250 254 254 259 260 261 258 257 258 258 259 255 252
274 276 284 263 259 258 256 249 250 250 254 253 257 257 254 252 253 255 259 259 261 259 260 260 260 261 252
272 275 276 281 281 285 256 252 253 244 254 252 257 249 250 252 259 260 258 256 261 260 261 260 264 263 256
270 272 278 278 272 262 260 257 260 257 249 254 255 253 255 264 265 269 270 267 264 261 259 260 258 253 248
257 268 274 275 265 261 262 261 262 259 251 258 256 259 259 267 272 272 276 271 269 264 259 255 249 250 224
256 265 268 269 259 264 276 273 267 253 252 258 264 255 260 262 265 270 271 273 265 259 248 235 227 217 209
261 267 269 268 262 267 263 259 249 252 253 254 249 242 239 236 241 231 232 232 224 214 182 172 173 178 190
267 266 273 270 265 257 253 248 247 233 234 231 228 212 184 192 190 183 178 176 168 189 176 174 176 193 209
99 98 247 260 240 230 227 225 235 228 211 211 208 191 180 163 163 171 179 182 179 191 205 212 216 218 226
146 134 112 99 95 102 110 128 135 166 171 198 196 189 175 165 166 179 189 191 198 210 218 230 236 239 239
221 203 196 184 149 152 145 145 147 151 158 166 185 192 203 207 194 191 197 213 223 226 231 238 239 240 245
217 195 174 162 161 162 157 148 146 151 157 167 182 192 202 195 196 203 210 214 221 227 230 233 241 243 243
167 155 149 146 154 143 150 168 171 148 151 158 167 172 176 181 188 198 202 212 228 242 249 253 263 270 270
175 172 171 165 165 159 161 158 162 159 159 159 161 168 163 143 170 188 204 222 253 272 282 282 276 276 277
184 180 182 184 174 170 174 172 169 172 168 176 183 184 196 186 195 217 248 275 281 284 289 287 287 289 285
Wind_Speed_850mb
77 74 73 77 77 75 72 73 67 62 69 73 73 73 72 73 72 68 74 85 97 94 94 93 89 83 77
76 75 74 72 76 83 81 82 85 80 75 62 64 66 67 67 68 67 67 70 77 78 73 77 88 89 85
74 69 72 72 68 73 79 77 74 69 68 66 68 68 70 71 74 70 71 74 74 83 84 82 81 79 84
69 67 54 73 66 71 77 80 78 64 63 60 61 64 68 74 76 78 74 78 79 83 82 80 82 85 90
63 63 64 66 57 58 60 63 53 53 55 60 58 58 55 58 60 62 81 84 82 81 80 80 81 82 86
57 55 54 53 49 47 36 33 50 49 53 54 49 55 51 51 58 57 60 70 76 77 78 79 77 73 86
55 54 49 47 47 40 33 40 46 45 37 38 44 48 53 52 53 55 61 63 73 78 78 72 75 69 86
61 60 62 56 51 46 50 46 49 51 47 46 48 47 48 45 51 51 50 42 30 26 34 48 58 67 55
56 61 64 62 57 55 51 50 54 54 52 48 44 41 36 33 31 24 26 24 23 20 15 20 25 24 24
29 35 41 46 53 46 48 48 60 48 41 38 37 37 22 26 26 24 22 25 21 16 19 20 19 19 22
4 3 0 7 14 24 26 25 30 27 30 37 38 40 23 34 30 27 22 20 17 20 21 21 23 27 29
11 11 13 17 21 20 19 14 13 13 23 24 35 35 23 34 24 24 22 19 20 22 22 24 26 28 32
13 12 9 6 8 7 8 9 11 16 16 14 24 31 21 20 27 28 25 24 25 28 31 32 35 35 31
13 11 9 8 9 10 7 9 8 12 13 14 15 18 18 18 19 22 25 19 21 23 23 23 26 26 29
10 10 11 10 10 12 11 10 11 15 16 15 14 14 16 18 19 18 19 19 19 20 21 23 23 24 27
11 10 9 9 9 10 10 11 11 13 11 11 11 12 14 12 10 10 11 11 12 15 20 24 24 26 27
10 9 9 9 8 7 8 8 8 7 6 7 8 10 11 14 12 8 9 10 14 20 24 28 35 31 32
Wind_Direction_850mb
278 279 273 264 263 261 258 252 249 254 254 252 253 248 246 252 257 264 264 257 254 259 261 262 259 253 251
278 280 276 272 265 260 256 253 258 259 249 255 253 249 248 250 253 260 266 263 258 259 260 260 255 254 252
277 279 277 272 266 261 256 252 255 253 255 255 249 246 250 254 254 259 260 261 258 257 258 258 259 255 252
274 276 284 263 259 258 256 249 250 250 254 253 257 257 254 252 253 255 259 259 261 259 260 260 260 261 252
272 275 276 281 281 285 256 252 253 244 254 252 257 249 250 252 259 260 258 256 261 260 261 260 264 263 256
270 272 278 278 272 262 260 257 260 257 249 254 255 253 255 264 265 269 270 267 264 261 259 260 258 253 248
257 268 274 275 265 261 262 261 262 259 251 258 256 259 259 267 272 272 276 271 269 264 259 255 249 250 224
256 265 268 269 259 264 276 273 267 253 252 258 264 255 260 262 265 270 271 273 265 259 248 235 227 217 209
261 267 269 268 262 267 263 259 249 252 253 254 249 242 239 236 241 231 232 232 224 214 182 172 173 178 190
267 266 273 270 265 257 253 248 247 233 234 231 228 212 184 192 190 183 178 176 168 189 176 174 176 193 209
99 98 247 260 240 230 227 225 235 228 211 211 208 191 180 163 163 171 179 182 179 191 205 212 216 218 226
146 134 112 99 95 102 110 128 135 166 171 198 196 189 175 165 166 179 189 191 198 210 218 230 236 239 239
221 203 196 184 149 152 145 145 147 151 158 166 185 192 203 207 194 191 197 213 223 226 231 238 239 240 245
217 195 174 162 161 162 157 148 146 151 157 167 182 192 202 195 196 203 210 214 221 227 230 233 241 243 243
167 155 149 146 154 143 150 168 171 148 151 158 167 172 176 181 188 198 202 212 228 242 249 253 263 270 270
175 172 171 165 165 159 161 158 162 159 159 159 161 168 163 143 170 188 204 222 253 272 282 282 276 276 277
184 180 182 184 174 170 174 172 169 172 168 176 183 184 196 186 195 217 248 275 281 284 289 287 287 289 285